South Lake Tahoe, CA

3:39 PM PST on December 16, 2017 (GMT -0800)
Lake Tahoe

Weather History for KTVL - May, 2013

Change the Weather History Date:

Monday, May 27, 2013

  Actual Average Record
Temperature  
Mean Temperature 44 °F 50 °F  
Max Temperature 58 °F 67 °F 82 °F (1984)
Min Temperature 30 °F 34 °F 26 °F (1953)
Degree Days  
Heating Degree Days 21 15  
Month to date heating degree days 427 475  
Since 1 July heating degree days 6811 7365  
Cooling Degree Days 0 0  
Month to date cooling degree days 0 0  
Year to date cooling degree days 0 0  
Moisture  
Dew Point 32 °F    
Average Humidity 52    
Maximum Humidity 82    
Minimum Humidity 21    
Precipitation  
Precipitation 0.06 in - 0.30 in (1981)
Month to date precipitation 1.70  
Year to date precipitation 4.64  
Sea Level Pressure  
Sea Level Pressure 30.02 in    
Wind  
Wind Speed 6 mph (South)    
Max Wind Speed 21 mph    
Max Gust Speed 30 mph    
Visibility 10 miles    
Events Rain    
T = Trace of Precipitation, MM = Missing Value Source: NWS Daily Summary

Daily Weather History Graph

Daily Weather History Graph

Search for Another Location

Airport or City:

Trip Planner

Search our weather history database for the weather conditions in past years. The results will help you decide how hot, cold, wet, or windy it might be!

Date:

Astronomy

May. 27, 2013 Rise Set
Actual Time 5:38 AM PDT 8:16 PM PDT
Civil Twilight 5:07 AM PDT 8:47 PM PDT
Nautical Twilight 4:29 AM PDT 9:26 PM PDT
Astronomical Twilight 3:45 AM PDT 10:09 PM PDT
Moon 11:00 PM PDT (5/27) 8:21 AM PDT (5/27)
Length of Visible Light 15h 39m
Length of Day
14h 37m
Waning Gibbous, 90% of the Moon is Illuminated
May 27
Waning Gibbous
May 31
Last Quarter
Jun 8
New
Jun 16
First Quarter
Jun 23
Full

Hourly Weather History & Observations

Time (PDT) Temp. Windchill Dew Point Humidity Pressure Visibility Wind Dir Wind Speed Gust Speed Precip Events Conditions
12:53 AM 39.0 °F - 26.1 °F 60% 30.06 in 10.0 mi Calm Calm - N/A   Clear
1:53 AM 36.0 °F 33.3 °F 25.0 °F 64% 30.07 in 10.0 mi South 3.5 mph - N/A   Clear
2:53 AM 33.1 °F - 24.1 °F 70% 30.06 in 10.0 mi Calm Calm - N/A   Clear
3:53 AM 30.9 °F - 23.0 °F 72% 30.06 in 10.0 mi Calm Calm - N/A   Clear
4:53 AM 30.9 °F - 21.9 °F 69% 30.05 in 10.0 mi Calm Calm - N/A   Clear
5:53 AM 30.9 °F - 23.0 °F 72% 30.04 in 10.0 mi Calm Calm - N/A   Clear
6:53 AM 34.0 °F - 24.1 °F 67% 30.04 in 10.0 mi Calm Calm - N/A   Clear
7:53 AM 45.0 °F - 23.0 °F 42% 30.00 in 10.0 mi Calm Calm - N/A   Clear
8:53 AM 54.0 °F - 15.1 °F 22% 29.99 in 10.0 mi South 13.8 mph - N/A   Clear
9:53 AM 57.0 °F - 18.0 °F 22% 29.99 in 10.0 mi South 13.8 mph 24.2 mph N/A   Clear
10:53 AM 57.0 °F - 25.0 °F 29% 29.99 in 10.0 mi South 12.7 mph 29.9 mph N/A   Mostly Cloudy
11:53 AM 55.9 °F - 30.9 °F 39% 30.00 in 10.0 mi South 18.4 mph 27.6 mph N/A   Mostly Cloudy
12:53 PM 51.1 °F - 34.0 °F 52% 30.05 in 10.0 mi South 17.3 mph 23.0 mph 0.00 in   Overcast
1:53 PM 46.9 °F - 39.0 °F 74% 30.08 in 10.0 mi South 16.1 mph - 0.00 in Rain Light Rain
2:53 PM 46.9 °F - 37.0 °F 68% 30.06 in 10.0 mi SSW 15.0 mph 26.5 mph 0.01 in   Overcast
3:53 PM 48.9 °F - 36.0 °F 61% 30.06 in 10.0 mi SSW 15.0 mph 24.2 mph N/A   Mostly Cloudy
4:53 PM 51.1 °F - 37.9 °F 61% 30.04 in 10.0 mi SSW 13.8 mph 21.9 mph N/A   Mostly Cloudy
5:53 PM 50.0 °F - 39.0 °F 66% 30.04 in 10.0 mi SSW 12.7 mph 21.9 mph N/A   Overcast
6:53 PM 50.0 °F - 39.9 °F 68% 30.02 in 10.0 mi South 12.7 mph - 0.00 in   Overcast
7:53 PM 48.0 °F - 42.1 °F 80% 29.99 in 5.0 mi SSW 10.4 mph - 0.00 in Rain Light Rain
8:53 PM 48.0 °F - 42.1 °F 80% 29.94 in 10.0 mi South 5.8 mph - 0.01 in Rain Light Rain
9:53 PM 48.0 °F - 41.0 °F 77% 29.92 in 10.0 mi South 8.1 mph - 0.00 in   Overcast
10:40 PM 46.4 °F 44.3 °F 41.0 °F 81% 30.03 in 10.0 mi SSE 4.6 mph - 0.01 in Rain Light Rain
10:53 PM 46.9 °F - 39.9 °F 77% 29.92 in 10.0 mi SSW 4.6 mph - 0.01 in Rain Light Rain
11:39 PM 46.4 °F 42.4 °F 41.0 °F 81% 30.01 in 8.0 mi South 8.1 mph - 0.01 in Rain Light Rain
11:53 PM 46.9 °F - 41.0 °F 80% 29.89 in 8.0 mi SSE 8.1 mph - 0.02 in Rain Light Rain